Weather History for Douglas, WY

Change the Weather History Date:

Wednesday, May 8, 2013

  Actual Average Record
Temperature  
Mean Temperature 56 °F 50 °F  
Max Temperature 73 °F 65 °F 84 °F (2004)
Min Temperature 39 °F 36 °F 21 °F (2010)
Degree Days  
Heating Degree Days 9 15  
Month to date heating degree days 150 127  
Since 1 July heating degree days 6916 7084  
Cooling Degree Days 0 0  
Month to date cooling degree days 0 0  
Year to date cooling degree days 0 0  
Growing Degree Days 6 (Base 50)    
Moisture  
Dew Point 35 °F    
Average Humidity 52    
Maximum Humidity 85    
Minimum Humidity 19    
Precipitation  
Precipitation T in 0.09 in 0.43 in (2005)
Month to date precipitation 0.16 0.65  
Year to date precipitation 2.98 3.80  
Sea Level Pressure  
Sea Level Pressure 29.96 in    
Wind  
Wind Speed 11 mph (NE)    
Max Wind Speed 36 mph    
Max Gust Speed 43 mph    
Visibility 10 miles    
Events Rain    
T = Trace of Precipitation, MM = Missing Value Source: NWS Daily Summary

Daily Weather History Graph

Daily Weather History Graph

Search for Another Location

Airport:

Trip Planner

Search our weather history database for the weather conditions in past years. The results will help you decide how hot, cold, wet, or windy it might be!

Date:

Astronomy

May. 08, 2013 Rise Set
Actual Time 5:46 AM MDT 8:10 PM MDT
Civil Twilight 5:14 AM MDT 8:42 PM MDT
Nautical Twilight 4:35 AM MDT 9:21 PM MDT
Astronomical Twilight 3:51 AM MDT 10:05 PM MDT
Moon 4:57 AM MDT (5/8) 7:09 PM MDT (5/8)
Length of Visible Light 15h 27m
Length of Day
14h 23m
Waning Crescent, 2% of the Moon is Illuminated
May 8
Waning Crescent
May 9
New
May 17
First Quarter
May 24
Full
May 31
Last Quarter

Hourly Weather History & Observations

Time (MDT) Temp. Windchill Dew Point Humidity Pressure Visibility Wind Dir Wind Speed Gust Speed Precip Events Conditions
12:53 AM 44.1 °F - 34.0 °F 68% 29.87 in 10.0 mi Calm Calm - N/A   Clear
1:53 AM 43.0 °F 38.2 °F 35.1 °F 74% 29.86 in 10.0 mi NNW 8.1 mph - N/A   Clear
2:53 AM 42.1 °F 39.2 °F 34.0 °F 73% 29.86 in 10.0 mi NNW 4.6 mph - N/A   Clear
3:53 AM 43.0 °F 37.2 °F 35.1 °F 74% 29.88 in 10.0 mi NNW 10.4 mph - N/A   Scattered Clouds
4:53 AM 39.9 °F 37.8 °F 35.1 °F 83% 29.91 in 10.0 mi WNW 3.5 mph - N/A   Scattered Clouds
5:53 AM 39.0 °F 36.8 °F 34.0 °F 82% 29.90 in 10.0 mi NW 3.5 mph - N/A   Scattered Clouds
6:53 AM 46.0 °F 41.4 °F 37.9 °F 73% 29.91 in 10.0 mi NW 9.2 mph - N/A   Mostly Cloudy
7:53 AM 52.0 °F - 39.0 °F 61% 29.94 in 10.0 mi WNW 11.5 mph - N/A   Mostly Cloudy
8:53 AM 59.0 °F - 39.0 °F 48% 29.94 in 10.0 mi NW 8.1 mph - N/A   Clear
9:53 AM 64.9 °F - 35.1 °F 33% 29.93 in 10.0 mi NNE 9.2 mph - N/A   Clear
10:53 AM 69.1 °F - 28.9 °F 22% 29.93 in 10.0 mi NNE 18.4 mph 23.0 mph N/A   Partly Cloudy
11:53 AM 66.9 °F - 28.0 °F 23% 29.95 in 10.0 mi NNE 15.0 mph 19.6 mph N/A   Mostly Cloudy
12:53 PM 72.0 °F - 26.1 °F 18% 29.92 in 10.0 mi NE 16.1 mph 24.2 mph N/A   Partly Cloudy
1:53 PM 68.0 °F - 26.1 °F 21% 29.93 in 10.0 mi NE 13.8 mph 20.7 mph N/A   Mostly Cloudy
2:53 PM 72.0 °F - 32.0 °F 23% 29.93 in 10.0 mi East 24.2 mph 42.6 mph N/A   Scattered Clouds
3:03 PM 66.2 °F - 33.8 °F 30% 30.03 in 10.0 mi East 26.5 mph 32.2 mph N/A   Mostly Cloudy
3:53 PM 64.0 °F - 34.0 °F 33% 29.97 in 10.0 mi ESE 23.0 mph 31.1 mph N/A   Scattered Clouds
4:53 PM 63.0 °F - 36.0 °F 37% 29.99 in 10.0 mi NE 28.8 mph 36.8 mph N/A   Mostly Cloudy
5:00 PM 62.6 °F - 35.6 °F 37% 30.06 in 10.0 mi NE 28.8 mph 35.7 mph N/A   Mostly Cloudy
5:53 PM 57.0 °F - 39.0 °F 51% 30.04 in 5.0 mi East 20.7 mph 38.0 mph 0.00 in Rain Light Rain
6:06 PM 60.8 °F - 37.4 °F 42% 30.08 in 10.0 mi South 10.4 mph 21.9 mph 0.00 in   Overcast
6:53 PM 59.0 °F - 41.0 °F 51% 30.00 in 10.0 mi ESE 3.5 mph - 0.00 in   Overcast
7:53 PM 53.1 °F - 42.1 °F 66% 30.02 in 10.0 mi East 4.6 mph - N/A   Clear
8:53 PM 48.9 °F - 39.9 °F 71% 30.02 in 10.0 mi ENE 5.8 mph - N/A   Clear
9:53 PM 50.0 °F - 39.0 °F 66% 30.03 in 10.0 mi East 8.1 mph - N/A   Overcast
10:53 PM 52.0 °F - 39.0 °F 61% 30.01 in 10.0 mi East 6.9 mph - N/A   Overcast
11:53 PM 48.9 °F - 39.0 °F 69% 30.04 in 10.0 mi South 3.5 mph - N/A   Mostly Cloudy